Weather History for Altus AFB, OK

Change the Weather History Date:

Sunday, September 9, 2012

  Actual Average Record
Temperature  
Mean Temperature 71 °F -  
Max Temperature 90 °F 87 °F 97 °F (2014)
Min Temperature 52 °F 65 °F 50 °F (2004)
Cooling Degree Days 6    
Growing Degree Days 21 (Base 50)    
Moisture  
Dew Point 43 °F    
Average Humidity 41    
Maximum Humidity 86    
Minimum Humidity 15    
Precipitation  
Precipitation 0.00 in - - ()
Sea Level Pressure  
Sea Level Pressure 30.11 in    
Wind  
Wind Speed 3 mph (West)    
Max Wind Speed 8 mph    
Max Gust Speed -    
Visibility 10 miles    
Events      
Averages and records for this station are not official NWS values.
T = Trace of Precipitation, MM = Missing Value Source: NWS Daily Summary

Daily Weather History Graph

Daily Weather History Graph

Search for Another Location

Airport:

Trip Planner

Search our weather history database for the weather conditions in past years. The results will help you decide how hot, cold, wet, or windy it might be!

Date:

Astronomy

Sep. 09, 2012 Rise Set
Actual Time 7:16 AM CDT 7:51 PM CDT
Civil Twilight 6:50 AM CDT 8:16 PM CDT
Nautical Twilight 6:20 AM CDT 8:46 PM CDT
Astronomical Twilight 5:50 AM CDT 9:17 PM CDT
Moon 12:57 AM CDT (9/9) 3:27 PM CDT (9/9)
Length of Visible Light 13h 26m
Length of Day
12h 35m
Last Quarter, 39% of the Moon is Illuminated
Sep 9
Last Quarter
Sep 15
New
Sep 22
First Quarter
Sep 29
Full
Oct 8
Last Quarter

Hourly Weather History & Observations

Time (CDT) Temp. Dew Point Humidity Pressure Visibility Wind Dir Wind Speed Gust Speed Precip Events Conditions
12:55 AM 64.0 °F 45.0 °F 50% 30.11 in 10.0 mi Calm Calm - N/A   Clear
1:55 AM 59.7 °F 46.6 °F 62% 30.11 in 10.0 mi Calm Calm - N/A   Clear
2:55 AM 63.3 °F 45.9 °F 53% 30.10 in 10.0 mi West 3.5 mph - N/A   Clear
3:55 AM 61.2 °F 46.6 °F 59% 30.11 in 10.0 mi WNW 5.8 mph - N/A   Clear
4:55 AM 57.4 °F 46.0 °F 66% 30.11 in 10.0 mi NNW 3.5 mph - N/A   Clear
5:55 AM 55.8 °F 44.6 °F 66% 30.13 in 10.0 mi Calm Calm - N/A   Clear
6:55 AM 54.0 °F 46.2 °F 75% 30.14 in 10.0 mi NNE 4.6 mph - N/A   Clear
7:55 AM 52.7 °F 48.7 °F 86% 30.16 in 10.0 mi NNE 3.5 mph - N/A   Clear
8:55 AM 62.6 °F 50.4 °F 64% 30.16 in 10.0 mi NNE 3.5 mph - N/A   Clear
9:55 AM 72.0 °F 47.7 °F 42% 30.17 in 10.0 mi Calm Calm - N/A   Clear
10:55 AM 78.1 °F 45.1 °F 31% 30.17 in 10.0 mi West 4.6 mph - N/A   Clear
11:55 AM 83.8 °F 43.0 °F 24% 30.15 in 10.0 mi Variable 4.6 mph - N/A   Clear
12:55 PM 85.6 °F 39.7 °F 20% 30.14 in 10.0 mi NW 5.8 mph - N/A   Clear
1:55 PM 88.9 °F 37.8 °F 16% 30.12 in 10.0 mi East 4.6 mph - N/A   Clear
2:55 PM 89.6 °F 38.1 °F 16% 30.09 in 10.0 mi Variable 5.8 mph - N/A   Clear
3:55 PM 90.1 °F 37.2 °F 15% 30.07 in 10.0 mi ENE 8.1 mph - N/A   Clear
4:55 PM 90.1 °F 38.8 °F 16% 30.06 in 10.0 mi South 5.8 mph - N/A   Clear
5:55 PM 90.0 °F 39.2 °F 17% 30.05 in 10.0 mi South 8.1 mph - N/A   Clear
6:55 PM 88.3 °F 38.3 °F 17% 30.05 in 10.0 mi South 8.1 mph - N/A   Clear
7:55 PM 80.8 °F 41.7 °F 25% 30.05 in 10.0 mi South 5.8 mph - N/A   Clear
8:55 PM 76.6 °F 40.6 °F 27% 30.06 in 10.0 mi SSW 4.6 mph - N/A   Clear
9:55 PM 75.7 °F 42.1 °F 30% 30.07 in 10.0 mi SW 5.8 mph - N/A   Clear
10:55 PM 64.6 °F 46.8 °F 52% 30.07 in 10.0 mi Calm Calm - N/A   Clear
11:55 PM 68.5 °F 46.6 °F 45% 30.07 in 10.0 mi Calm Calm - N/A   Clear